Tracking 27086 objects as of 22-Mar-2023
HD Live streaming from Space Station
objects crossing your sky now

STARLINK-5464

Track STARLINK-5464 now!
10-day predictions
STARLINK-5464 is classified as:


NORAD ID: 54758
Int'l Code: 2022-175A
Perigee: 546.5 km
Apogee: 547.4 km
Inclination: 53.2 °
Period: 95.4 minutes
Semi major axis: 6917 km
RCS: Unknown
Launch date: December 17, 2022
Source: United States (US)
Launch site: AIR FORCE EASTERN TEST RANGE (AFETR)
Your satellite tracking list
Your tracking list is empty




NASA's NSSDC Master Catalog

Two Line Element Set (TLE):
1 54758U 22175A   23081.11546426 -.00001852  00000-0 -98376-4 0  9994
2 54758  53.2177 223.6613 0000675  88.2322 271.8748 15.08827411 12964
Source of the keplerian elements: AFSPC